Location: Gettysburg
(39.8310°N, 77.2310°W)
Time: 11:18:52
(UTC-04:00)

ATLAS 2AS CENTAUR R/B - Visible Passes

Search period start: 23 August 2014 00:00
Search period end: 02 September 2014 00:00
Orbit: 919 x 1293 km, 63.7° (Epoch: 18 August)

Date Brightness Start Highest point End Pass type
(mag) Time Alt. Az. Time Alt. Az. Time Alt. Az.
23 Aug 3.6 21:16:25 10° NNW 21:24:04 44° NE 21:28:39 23° ESE visible
23 Aug 3.5 23:07:34 10° NW 23:15:14 49° WSW 23:16:06 47° SW visible
24 Aug 4.1 20:31:51 10° NNW 20:38:53 32° NE 20:45:27 11° E visible
24 Aug 3.1 22:22:35 10° NW 22:30:39 74° WSW 22:32:54 50° S visible
25 Aug 5.0 00:16:43 10° WNW 00:20:20 14° WSW 00:20:21 14° WSW visible
25 Aug 3.0 21:37:47 10° NNW 21:45:55 77° NE 21:49:45 35° SE visible
25 Aug 4.5 23:30:09 10° WNW 23:36:08 24° WSW 23:37:12 23° WSW visible
26 Aug 3.4 20:53:06 10° NNW 21:01:00 54° NE 21:06:39 20° ESE visible
26 Aug 4.0 22:44:36 10° NW 22:51:49 38° WSW 22:54:07 31° SW visible
27 Aug 3.8 20:08:30 10° NNW 20:15:56 38° NE 20:23:12 10° ESE visible
27 Aug 3.4 21:59:28 10° NW 22:07:20 58° WSW 22:11:06 32° S visible
28 Aug 3.1 21:14:34 10° NW 21:22:41 86° WSW 21:28:09 22° SSE visible
28 Aug 4.9 23:07:47 10° WNW 23:12:35 17° WSW 23:15:37 14° SW visible
29 Aug 3.2 20:29:49 10° NNW 20:37:53 67° NE 20:45:16 12° SE visible
29 Aug 4.5 22:21:46 10° NW 22:28:20 29° WSW 22:32:45 17° SSW visible
30 Aug 3.9 21:36:25 10° NW 21:43:57 45° WSW 21:49:58 15° S visible
31 Aug 3.4 20:51:23 10° NW 20:59:24 68° WSW 21:07:06 10° SSE visible
31 Aug 5.3 22:46:14 10° W 22:48:58 12° W 22:51:41 10° WSW visible
01 Sep 3.1 20:06:34 10° NNW 20:14:42 83° ENE 20:22:32 10° SE visible
01 Sep 5.0 21:59:10 10° WNW 22:04:49 21° WSW 22:10:19 10° SSW visible
